Temp
6 6 6 6 6 7 9 9 8 7 7 7 6 6 7 8 8 10 10 10 10 9 9 8 8 7 7 6 6 6 6 6 6 6 6 6 6 6 5 5 5 5 5 5 5 5 5 5 5
6 6 6 5 7 9 10 8 8 7 6 6 7 7 7 7 8 9 9 10 10 9 8 8 7 6 6 6 5 5 5 6 6 6 6 6 6 6 5 5 5 5 5 5 5 5 5 5 4
6 6 5 6 7 9 9 8 7 6 6 7 6 7 6 7 8 9 9 9 9 10 8 7 6 6 5 5 5 5 5 5 6 6 6 6 6 6 5 5 5 5 5 5 5 5 4 4 4
6 6 5 6 8 8 7 7 6 5 7 6 6 7 6 7 8 8 9 9 9 9 8 7 6 5 5 4 4 5 5 5 5 6 6 6 6 5 5 5 5 5 4 4 4 4 4 4 4
6 5 6 7 8 7 7 6 5 5 6 7 6 5 6 6 7 8 9 9 8 6 6 6 5 5 5 4 4 4 5 5 5 6 6 6 5 5 5 4 4 4 4 4 4 4 3 4 3
5 5 7 8 8 7 6 6 6 6 6 7 6 6 5 4 7 8 7 7 7 6 6 5 5 5 4 4 4 4 4 5 5 5 5 5 5 4 4 4 4 4 4 4 3 3 3 3 3
5 6 7 7 7 7 6 6 6 6 7 6 6 5 6 6 7 7 7 7 6 6 5 5 4 5 5 3 3 3 4 4 4 4 5 5 4 4 4 4 4 3 3 3 3 3 3 3 3
5 6 7 7 7 7 7 7 7 7 7 7 6 5 6 7 7 7 6 6 5 6 5 5 5 5 4 3 0 2 3 4 3 4 5 4 4 4 4 4 3 3 3 3 3 2 3 2 2
6 6 7 7 7 7 7 7 7 7 6 6 6 6 6 6 6 6 6 6 6 5 5 4 5 4 3 3 1 1 2 3 3 3 4 3 3 3 4 3 3 3 2 2 2 2 2 1 1
5 7 7 7 7 6 7 6 6 6 6 6 6 5 5 6 6 5 5 6 5 5 4 4 4 4 3 1 1 -0 1 0 1 3 3 3 3 3 3 2 3 2 2 2 2 1 1 1 1
6 7 6 6 6 6 6 6 6 6 5 4 4 5 5 5 5 5 4 4 5 4 4 4 4 3 3 2 1 1 1 0 1 2 2 2 2 2 2 2 2 2 2 2 1 1 1 1 1
6 6 6 6 6 7 6 6 5 5 5 6 4 5 5 5 4 4 4 4 4 4 3 4 4 3 3 2 1 -0 0 0 2 1 2 2 2 2 2 2 2 2 2 1 1 0 0 0 -0
6 6 6 7 7 6 6 5 5 5 5 6 4 4 4 4 4 4 4 3 4 3 3 3 2 2 1 -0 -1 0 -0 0 1 1 2 2 2 2 2 2 2 1 1 1 0 0 -0 -0 -1
6 6 6 6 6 6 5 5 5 5 5 5 4 3 4 4 3 3 3 3 3 3 2 1 0 1 0 0 -0 -1 0 2 1 1 2 2 2 2 2 1 1 1 0 0 0 0 -0 -1 -0
6 6 6 6 6 5 5 5 5 5 5 5 3 3 3 3 3 3 2 2 2 1 1 -0 0 0 -0 0 0 1 1 1 1 2 2 2 2 1 1 1 1 1 1 1 0 0 -0 -1 -1
5 6 7 6 6 5 6 7 6 6 5 4 3 2 2 2 2 2 1 1 1 1 -0 0 1 0 1 2 1 1 1 1 1 2 2 2 1 1 1 1 1 1 1 0 1 -0 -1 -1 -1
6 8 7 6 6 5 6 7 6 6 5 4 3 2 2 1 1 1 2 1 1 1 1 0 0 1 2 2 2 2 1 2 2 2 2 1 1 1 1 1 1 1 1 0 -0 -1 -2 -1 -1
7 7 6 7 6 6 6 6 6 6 6 5 4 3 2 1 2 1 1 1 1 1 1 1 1 1 2 2 3 2 2 2 2 2 2 1 1 1 2 1 1 0 0 -0 -1 -1 -1 -1 -1
6 6 7 7 6 6 7 7 6 6 6 6 5 4 4 3 2 2 2 2 2 2 2 2 2 2 3 3 3 3 2 2 2 1 1 1 1 1 1 1 1 0 -0 -1 -1 -1 -2 -2 -2
6 6 6 6 6 6 7 7 7 7 7 6 5 5 4 4 4 4 4 4 4 3 3 3 3 3 3 3 2 2 2 2 2 1 1 1 2 2 2 1 0 -0 -1 -1 -1 -1 -1 -1 -2
6 6 6 6 6 7 7 7 7 8 7 7 6 5 5 5 5 5 5 5 4 4 4 3 3 3 3 3 2 2 2 2 2 1 1 1 2 2 1 1 0 -0 -1 -1 -2 -2 -2 -2 -2
6 6 6 6 6 9 7 10 8 7 8 7 7 6 6 6 6 5 5 5 5 4 4 4 3 3 3 3 2 2 2 1 1 1 1 1 2 1 1 0 -0 -1 -1 -2 -2 -2 -2 -3 -3
6 6 6 6 7 7 7 8 9 8 8 8 8 7 7 6 6 6 6 5 5 4 4 4 4 3 3 3 3 2 2 2 1 1 0 0 1 1 0 0 -0 -1 -1 -2 -2 -2 -2 -3 -3
5 5 5 5 7 8 8 8 10 9 8 8 7 8 7 7 6 6 6 6 5 5 4 4 4 3 3 3 3 2 2 2 2 1 1 1 1 1 0 0 -1 -1 -2 -2 -2 -3 -3 -3 -3
5 6 8 7 8 9 6 7 9 8 8 8 8 8 7 7 7 6 6 6 5 5 5 4 4 3 3 2 2 1 2 2 2 1 1 1 1 0 0 -0 -1 -2 -2 -3 -2 -3 -4 -4 -4
6 6 8 7 8 9 6 8 9 8 7 7 8 8 8 7 7 6 6 6 6 5 5 4 4 3 3 2 3 2 2 2 1 1 1 0 0 -0 -0 -1 -1 -1 -2 -2 -2 -3 -4 -3 -4
5 6 6 6 6 7 8 7 7 7 7 7 7 8 8 8 8 7 6 6 6 5 5 4 4 3 3 3 2 2 2 1 2 1 1 -0 -0 -0 -1 -1 -1 -2 -3 -2 -3 -3 -3 -4 -4
6 6 6 6 6 7 9 8 8 8 7 7 7 7 7 7 8 7 7 7 6 5 5 4 4 3 3 3 2 2 2 1 1 1 0 0 -0 -0 -1 -2 -2 -2 -3 -3 -3 -3 -4 -4 -5
5 6 6 6 6 8 7 9 7 7 7 7 6 7 7 7 7 7 7 7 6 6 5 4 4 3 3 2 2 2 2 2 1 1 0 -0 -1 -1 -2 -2 -2 -3 -4 -4 -5 -4 -5 -5 -5
6 6 6 6 7 6 5 6 7 7 7 6 6 6 6 7 7 7 7 7 6 5 5 4 4 3 3 3 2 2 2 1 1 0 -1 -1 -1 -1 -3 -2 -2 -4 -4 -4 -5 -5 -5 -6 -6
Height
3145 3145 3144 3144 3149 3143 3138 3139 3139 3138 3138 3140 3139 3141 3141 3140 3143 3145 3141 3141 3141 3142 3143 3146 3149 3152 3156 3159 3162 3165 3168 3169 3171 3172 3173 3175 3177 3178 3180 3181 3183 3184 3185 3186 3186 3186 3186 3185 3184
3144 3143 3143 3143 3145 3137 3133 3136 3138 3137 3135 3135 3136 3137 3138 3140 3138 3139 3139 3140 3139 3140 3142 3143 3147 3151 3154 3158 3161 3163 3166 3168 3170 3171 3172 3175 3177 3179 3180 3181 3183 3184 3186 3186 3187 3186 3186 3186 3186
3142 3142 3144 3143 3140 3136 3133 3136 3137 3136 3133 3132 3132 3137 3135 3135 3135 3135 3134 3136 3137 3138 3140 3141 3145 3149 3152 3156 3159 3162 3164 3166 3168 3170 3172 3175 3177 3179 3181 3182 3184 3185 3186 3186 3187 3187 3187 3187 3187
3142 3142 3142 3141 3137 3136 3136 3135 3134 3131 3130 3131 3133 3132 3131 3130 3132 3131 3131 3135 3135 3136 3137 3141 3144 3147 3150 3153 3156 3160 3163 3165 3167 3169 3171 3175 3177 3179 3181 3182 3184 3185 3186 3186 3186 3187 3187 3187 3186
3141 3141 3141 3138 3136 3135 3134 3131 3130 3131 3129 3129 3127 3129 3129 3127 3128 3129 3131 3131 3131 3133 3136 3139 3143 3146 3148 3153 3156 3159 3162 3163 3165 3167 3171 3174 3177 3179 3180 3183 3184 3185 3186 3186 3185 3187 3187 3186 3186
3142 3140 3139 3135 3135 3135 3132 3128 3128 3129 3128 3127 3127 3125 3122 3115 3125 3126 3126 3128 3130 3132 3135 3138 3141 3145 3148 3151 3154 3157 3160 3163 3164 3166 3171 3173 3175 3178 3180 3183 3184 3185 3185 3185 3186 3186 3187 3186 3186
3141 3141 3138 3136 3136 3134 3132 3130 3129 3129 3128 3127 3126 3126 3124 3125 3127 3126 3126 3129 3128 3125 3133 3135 3140 3142 3141 3141 3148 3154 3158 3160 3163 3167 3172 3173 3175 3178 3181 3182 3183 3184 3185 3186 3185 3186 3187 3186 3185
3139 3140 3137 3136 3135 3134 3132 3130 3129 3128 3127 3125 3125 3126 3124 3123 3123 3124 3125 3128 3128 3128 3129 3131 3134 3133 3134 3133 3142 3151 3158 3161 3164 3168 3172 3173 3175 3178 3180 3182 3184 3183 3185 3184 3185 3185 3186 3186 3185
3137 3138 3135 3135 3135 3134 3131 3130 3128 3127 3124 3122 3122 3122 3122 3122 3122 3123 3123 3125 3126 3127 3127 3128 3130 3130 3133 3133 3140 3150 3156 3161 3164 3166 3169 3171 3174 3176 3179 3182 3182 3183 3183 3184 3184 3185 3184 3184 3183
3137 3136 3135 3135 3134 3133 3129 3128 3126 3125 3123 3121 3118 3117 3117 3118 3119 3119 3121 3121 3124 3126 3127 3128 3130 3129 3120 3124 3134 3143 3147 3155 3165 3168 3168 3170 3173 3175 3178 3180 3180 3182 3182 3183 3183 3182 3182 3183 3182
3136 3135 3134 3134 3132 3130 3129 3127 3126 3124 3125 3122 3118 3115 3115 3115 3116 3117 3118 3119 3122 3124 3126 3123 3127 3130 3132 3136 3136 3135 3144 3151 3161 3168 3169 3170 3173 3174 3175 3177 3179 3179 3181 3180 3181 3181 3181 3181 3181
3135 3133 3132 3131 3130 3129 3128 3127 3125 3124 3122 3118 3115 3114 3113 3113 3114 3115 3117 3117 3118 3120 3123 3125 3126 3127 3132 3135 3138 3142 3142 3154 3162 3165 3168 3170 3172 3173 3176 3177 3177 3178 3179 3179 3179 3180 3180 3178 3178
3133 3132 3130 3129 3129 3128 3127 3126 3125 3122 3118 3113 3109 3111 3112 3111 3112 3113 3114 3115 3117 3118 3118 3117 3122 3123 3126 3131 3136 3141 3145 3152 3157 3162 3167 3169 3172 3174 3175 3176 3176 3176 3176 3176 3177 3176 3176 3175 3175
3131 3130 3130 3129 3128 3127 3126 3125 3124 3121 3116 3111 3107 3108 3109 3110 3111 3111 3112 3112 3115 3114 3112 3113 3115 3117 3126 3131 3131 3141 3151 3155 3157 3162 3165 3168 3170 3172 3173 3174 3174 3174 3174 3174 3174 3173 3173 3172 3171
3130 3131 3129 3128 3128 3128 3126 3125 3124 3119 3115 3112 3106 3106 3107 3108 3109 3110 3111 3111 3111 3112 3112 3117 3119 3125 3131 3135 3139 3145 3149 3153 3158 3162 3164 3167 3169 3170 3171 3172 3173 3172 3172 3171 3171 3171 3170 3170 3168
3131 3130 3128 3128 3127 3126 3126 3122 3121 3119 3116 3114 3110 3108 3106 3106 3107 3108 3110 3111 3113 3115 3116 3120 3124 3131 3136 3139 3141 3144 3149 3154 3157 3160 3163 3165 3167 3168 3169 3170 3170 3169 3169 3169 3169 3168 3167 3166 3164
3130 3125 3127 3127 3125 3125 3125 3124 3121 3120 3118 3116 3112 3112 3110 3106 3104 3112 3116 3117 3120 3123 3124 3125 3130 3135 3138 3140 3142 3145 3148 3153 3156 3159 3161 3163 3164 3166 3167 3167 3167 3166 3166 3167 3165 3164 3164 3161 3160
3125 3126 3127 3126 3126 3124 3124 3123 3120 3119 3119 3118 3117 3116 3115 3115 3114 3117 3118 3121 3123 3126 3127 3129 3133 3136 3139 3141 3144 3146 3149 3152 3156 3158 3160 3161 3162 3163 3164 3164 3163 3163 3163 3163 3161 3160 3160 3158 3157
3126 3126 3125 3124 3124 3123 3122 3121 3120 3118 3119 3119 3118 3118 3118 3119 3120 3121 3122 3125 3126 3127 3130 3133 3136 3138 3141 3143 3145 3148 3150 3153 3155 3156 3157 3158 3159 3160 3160 3161 3160 3160 3159 3158 3157 3157 3155 3153 3152
3124 3124 3123 3123 3121 3121 3120 3119 3119 3117 3118 3119 3119 3119 3119 3119 3120 3121 3123 3125 3127 3129 3132 3134 3137 3139 3141 3143 3146 3147 3149 3151 3152 3153 3155 3155 3155 3155 3157 3157 3157 3156 3155 3154 3153 3152 3150 3148 3148
3122 3122 3120 3121 3120 3118 3117 3116 3115 3116 3116 3118 3119 3119 3119 3120 3120 3121 3123 3125 3127 3129 3132 3133 3135 3137 3139 3142 3144 3146 3147 3148 3149 3150 3151 3151 3152 3152 3153 3153 3153 3152 3151 3150 3149 3148 3146 3144 3142
3119 3120 3119 3119 3118 3113 3115 3109 3113 3114 3114 3114 3116 3117 3118 3119 3120 3121 3122 3124 3126 3128 3130 3132 3133 3136 3138 3139 3141 3142 3144 3145 3146 3147 3147 3147 3148 3149 3148 3148 3148 3148 3147 3145 3144 3142 3141 3138 3135
3118 3117 3118 3117 3116 3115 3113 3113 3107 3111 3111 3111 3111 3113 3115 3116 3118 3119 3121 3123 3125 3126 3128 3130 3131 3132 3134 3136 3137 3138 3139 3140 3141 3142 3139 3142 3144 3144 3144 3144 3143 3142 3141 3139 3138 3136 3133 3130 3129
3115 3116 3116 3115 3114 3112 3110 3112 3104 3108 3110 3110 3110 3109 3111 3113 3114 3116 3118 3120 3122 3124 3125 3126 3127 3129 3131 3132 3134 3135 3136 3137 3136 3136 3136 3137 3139 3139 3138 3138 3137 3136 3135 3133 3130 3127 3125 3124 3122
3112 3114 3111 3112 3110 3106 3109 3110 3105 3107 3107 3106 3106 3106 3106 3108 3110 3112 3114 3116 3118 3119 3121 3122 3124 3126 3127 3129 3130 3131 3131 3132 3131 3131 3131 3131 3132 3132 3132 3131 3130 3129 3127 3124 3121 3119 3116 3115 3111
3109 3111 3108 3108 3105 3103 3108 3105 3104 3104 3104 3103 3102 3102 3102 3102 3103 3106 3110 3112 3114 3116 3118 3120 3121 3122 3124 3124 3126 3127 3127 3127 3125 3125 3125 3125 3126 3125 3125 3124 3122 3121 3119 3116 3113 3111 3107 3106 3103
3105 3107 3108 3108 3108 3107 3103 3103 3102 3101 3101 3100 3098 3097 3097 3097 3098 3100 3103 3106 3109 3111 3114 3115 3116 3117 3118 3120 3120 3120 3120 3119 3119 3119 3119 3119 3119 3119 3119 3117 3115 3113 3112 3109 3107 3104 3100 3097 3094
3102 3103 3106 3105 3105 3101 3096 3098 3097 3098 3099 3098 3097 3096 3095 3095 3095 3096 3098 3100 3103 3105 3108 3110 3112 3113 3113 3114 3114 3115 3114 3113 3113 3112 3112 3113 3113 3113 3112 3111 3108 3105 3103 3103 3101 3097 3092 3090 3086
3098 3099 3101 3100 3101 3097 3096 3093 3095 3095 3096 3096 3095 3094 3093 3093 3093 3094 3095 3097 3098 3100 3101 3104 3106 3108 3108 3109 3109 3108 3107 3107 3106 3107 3107 3108 3107 3106 3104 3102 3098 3097 3097 3095 3092 3089 3086 3082 3077
3093 3095 3097 3097 3097 3098 3096 3094 3093 3092 3092 3092 3092 3092 3092 3092 3091 3092 3092 3092 3093 3095 3097 3098 3100 3102 3103 3102 3102 3102 3101 3101 3102 3102 3102 3101 3099 3096 3097 3096 3093 3091 3088 3087 3085 3082 3077 3072 3068
Wind_Speed
8 9 9 8 5 8 15 9 9 7 12 24 14 9 9 11 9 6 5 8 10 15 20 24 23 23 22 20 19 18 16 14 11 9 8 7 6 8 13 15 14 12 11 11 10 11 12 14 16
7 9 8 6 9 15 15 7 6 5 10 18 18 13 11 14 14 10 11 8 10 15 21 26 26 25 23 21 19 19 18 17 15 12 9 8 9 13 16 16 14 12 10 9 9 11 12 13 15
8 9 4 6 11 15 9 4 7 9 11 15 26 20 15 19 20 12 9 12 11 12 22 25 27 27 25 24 22 21 21 19 17 13 10 12 14 14 16 15 13 11 9 8 9 10 11 12 13
8 9 7 7 11 6 6 6 7 6 14 16 21 26 18 17 17 9 9 15 17 15 22 26 28 28 27 26 24 24 23 21 17 13 14 14 14 16 16 15 12 10 9 8 8 9 9 10 12
8 6 6 9 9 7 7 6 4 3 6 8 11 14 23 15 13 8 12 14 15 19 23 29 29 30 29 26 25 25 24 21 17 14 16 15 15 16 15 13 12 9 8 8 7 6 8 9 10
5 4 7 8 3 4 7 5 3 3 4 5 8 10 6 6 6 5 8 11 15 21 21 27 30 30 29 28 27 27 25 22 18 16 17 18 16 15 14 12 11 8 7 5 5 6 6 8 9
4 6 7 6 4 0 6 6 1 1 3 8 8 6 10 8 5 8 11 17 18 22 25 27 31 31 37 36 32 28 26 25 19 19 15 15 17 15 13 11 8 6 4 4 4 4 5 7 7
3 3 5 4 3 1 6 4 4 5 8 9 8 3 7 8 4 6 14 16 21 26 29 33 35 37 37 39 32 29 28 24 22 22 17 18 16 14 11 8 7 4 2 2 3 4 6 6 8
2 4 4 4 3 3 5 7 6 8 12 12 10 10 12 9 6 5 8 10 17 23 28 32 40 38 34 30 38 31 26 26 22 25 22 18 15 13 11 9 6 4 1 1 2 5 6 7 8
1 3 2 4 6 7 10 8 10 13 12 12 13 13 13 14 13 11 14 16 18 22 27 25 29 32 46 43 43 37 32 30 24 21 21 18 14 11 9 6 4 3 1 3 5 7 8 10 10
4 4 6 8 11 12 9 10 12 10 8 8 11 13 15 16 13 15 14 17 19 23 26 27 34 35 37 32 30 39 37 30 24 24 19 15 14 11 8 7 6 3 5 6 7 9 10 12 12
8 10 11 10 6 5 7 10 6 5 8 16 16 12 11 10 12 13 15 18 15 19 25 24 33 29 32 29 21 36 31 30 25 20 18 16 13 10 10 9 5 6 9 8 9 10 12 13 15
10 12 9 3 4 7 7 6 6 5 18 22 14 16 13 13 12 13 12 17 17 18 29 40 38 38 31 32 39 34 26 28 25 19 17 15 13 13 11 8 8 9 9 10 12 14 15 17 18
10 5 4 2 5 7 4 6 4 10 16 19 5 13 12 12 12 13 14 13 13 22 38 36 24 23 31 18 27 36 30 25 19 17 17 16 14 11 10 9 9 10 12 13 15 17 16 15 13
5 3 2 4 4 5 6 4 4 8 13 16 4 8 9 12 11 11 12 10 16 13 16 27 32 33 36 30 27 22 18 17 18 18 16 14 12 11 10 11 11 11 14 15 15 14 14 14 14
4 3 7 4 4 4 5 6 9 9 11 14 7 8 4 6 12 12 15 17 17 16 30 39 39 30 26 24 22 20 20 21 19 18 16 13 13 12 12 12 12 12 11 12 13 13 13 15 18
9 8 6 4 4 5 5 7 7 8 8 9 8 8 13 13 19 31 25 26 26 24 27 26 26 23 20 21 21 22 21 20 18 17 16 15 14 14 15 14 13 11 11 12 11 13 16 20 21
9 9 6 7 5 9 10 10 9 6 5 5 6 10 12 20 21 20 15 14 16 17 16 16 17 19 19 21 19 19 18 17 16 15 14 13 14 15 14 13 12 12 12 12 13 17 20 20 21
9 9 8 8 9 10 10 10 9 6 2 3 1 5 14 17 13 11 13 14 17 19 18 16 17 18 19 18 16 14 12 13 14 14 14 13 14 13 11 14 13 13 12 14 16 19 22 23 24
10 11 13 9 6 9 9 9 8 7 2 1 2 3 10 14 15 14 16 20 21 20 19 18 17 17 16 15 15 14 14 14 13 13 14 16 15 13 14 13 13 14 15 17 19 21 24 22 20
12 14 10 10 8 9 11 10 9 7 8 8 7 8 10 11 14 17 19 20 21 21 19 18 17 16 16 17 18 17 14 13 13 12 14 16 13 14 13 13 14 15 18 22 23 24 27 33 35
12 9 10 8 6 8 6 4 6 9 8 10 13 15 15 14 16 18 18 19 18 19 20 20 20 20 19 19 18 18 17 15 14 15 15 17 16 14 13 13 15 17 21 25 27 32 34 30 34
9 9 7 7 7 6 7 8 5 6 9 11 11 18 19 18 18 19 19 20 21 22 21 22 21 21 21 21 19 19 20 20 19 19 22 17 17 17 15 16 19 21 24 28 32 35 33 38 32
7 7 5 6 7 9 5 6 4 6 5 5 7 12 20 21 21 21 20 20 21 22 23 23 22 22 23 23 22 22 23 23 23 23 18 19 20 19 18 19 22 24 25 29 36 34 29 27 33
8 8 9 7 7 5 4 5 12 9 6 6 8 10 14 23 27 25 25 24 25 24 23 22 22 23 22 23 23 23 21 24 25 25 22 21 21 20 21 24 25 26 28 32 31 30 24 32 33
14 13 7 6 5 5 4 7 4 8 10 8 10 12 14 18 25 32 29 26 26 26 25 23 25 22 20 19 18 18 26 28 25 26 23 22 23 24 25 27 27 25 28 32 38 31 36 38 38
12 12 11 4 4 6 9 10 11 8 6 9 8 9 8 11 18 26 32 33 28 26 23 19 23 22 19 18 23 22 23 25 26 25 25 26 25 26 27 26 27 31 29 33 34 37 39 38 40
12 13 8 8 5 7 7 10 10 6 3 1 3 4 5 7 14 18 25 29 30 29 27 27 22 21 21 21 22 24 24 27 27 27 26 25 25 26 24 27 33 34 30 28 35 39 38 39 41
17 14 11 7 6 4 4 6 7 7 8 7 5 5 3 2 5 14 18 21 26 28 26 25 29 26 23 21 21 22 23 25 27 27 26 25 27 30 23 31 36 21 26 28 33 35 37 39 40
18 17 18 12 10 8 7 15 14 15 9 7 9 8 6 4 4 5 7 13 24 29 29 28 27 26 23 20 17 17 18 22 23 24 26 29 31 25 17 29 33 24 31 30 34 37 39 39 37
Wind_Direction
277 284 294 297 259 247 255 250 239 250 235 217 260 240 202 212 204 233 201 210 208 211 210 204 206 200 195 190 189 190 194 196 202 210 219 227 216 161 143 132 127 121 110 97 91 85 77 69 65
287 301 296 258 257 253 252 231 243 229 235 210 220 252 244 242 239 235 244 255 224 215 212 208 203 198 195 193 189 191 193 194 199 208 214 210 176 151 139 133 128 121 113 102 90 76 70 66 65
304 306 286 258 259 263 289 254 269 268 237 220 214 236 238 246 257 245 258 240 224 214 211 210 205 197 195 193 192 194 194 196 197 200 204 185 163 150 140 136 135 127 111 98 81 68 62 61 58
314 314 300 256 266 271 251 282 303 315 211 197 208 224 243 237 243 226 211 242 217 210 209 211 208 201 199 195 194 195 196 197 195 197 187 178 165 152 148 144 133 119 108 91 73 63 61 54 44
312 303 270 269 271 239 287 262 269 242 201 207 211 224 232 223 235 227 223 227 212 194 199 207 207 203 200 196 196 196 197 194 191 187 178 173 162 159 151 138 134 122 106 87 70 60 56 46 34
293 274 272 282 222 296 309 344 212 181 218 214 222 268 244 273 247 228 225 216 212 207 207 208 204 201 200 195 197 197 196 190 187 173 178 168 167 163 150 147 139 131 107 87 67 47 38 28 21
252 283 291 274 271 35 356 354 30 313 265 264 272 262 267 273 239 220 207 200 206 210 210 207 202 200 197 187 187 191 189 179 172 173 176 172 172 166 160 152 140 135 117 97 67 33 13 8 11
267 295 279 233 245 353 345 352 337 346 317 305 299 249 268 258 217 192 217 210 217 216 213 209 198 193 187 178 165 164 174 183 171 176 184 182 174 169 165 160 169 141 138 47 31 4 341 342 351
337 263 253 230 241 309 332 322 314 302 307 297 279 266 257 255 250 229 231 222 224 219 216 214 208 192 192 177 164 165 168 174 175 179 187 181 178 181 180 179 164 178 153 325 347 328 326 335 329
221 271 233 240 271 295 293 296 307 321 320 310 294 274 260 262 268 257 231 243 210 219 226 218 223 205 189 164 172 163 164 163 182 183 186 181 183 193 191 192 208 216 255 299 312 312 312 314 315
277 224 261 293 290 295 304 315 322 331 322 290 285 273 263 266 265 244 228 219 223 221 228 217 219 226 208 207 193 185 163 154 179 185 181 184 188 191 204 212 226 244 276 294 302 300 302 301 303
267 272 280 286 300 301 300 311 328 327 308 319 271 253 243 233 236 216 228 224 222 226 223 216 203 195 213 205 211 183 152 158 179 178 185 180 190 197 210 225 240 261 270 284 292 297 300 299 302
264 275 287 216 258 282 299 312 314 299 333 318 256 238 233 236 223 223 220 224 226 238 236 224 217 198 188 168 149 144 159 173 172 174 184 185 193 203 214 230 250 259 267 276 283 290 295 293 296
258 227 166 215 267 292 308 318 317 308 328 347 255 213 221 227 217 221 221 223 218 201 172 158 164 181 184 187 157 138 158 165 167 179 185 194 199 209 223 228 239 251 265 276 283 291 289 298 307
175 142 192 223 274 285 344 296 317 336 343 12 349 222 195 202 203 201 199 212 222 189 173 180 140 140 133 143 152 155 148 165 178 186 188 193 201 209 213 227 248 265 268 271 285 289 296 299 310
192 212 227 242 262 268 337 8 357 359 344 20 17 90 167 208 197 183 160 152 162 180 132 127 128 139 151 152 150 153 166 173 177 182 187 193 203 213 223 245 266 278 276 281 287 292 297 307 313
225 250 241 248 277 260 311 334 312 359 352 11 36 100 85 102 123 114 122 119 123 129 130 136 141 149 155 152 155 161 166 175 180 184 191 201 211 224 239 255 278 283 284 289 300 307 307 315 317
227 234 247 265 266 289 280 288 294 309 356 353 53 138 134 127 129 136 142 147 149 153 150 152 151 158 167 163 162 164 169 174 185 194 200 215 221 225 241 265 283 286 290 299 305 306 308 307 310
248 244 256 272 279 283 268 282 254 279 335 343 9 122 160 166 163 150 154 156 155 155 152 152 157 164 167 166 164 171 174 188 197 203 212 218 232 244 260 279 286 286 290 294 301 304 304 298 295
226 244 269 272 270 264 270 276 238 257 234 224 217 191 187 186 176 177 168 164 161 162 166 168 169 171 171 172 180 188 199 204 209 215 220 239 239 250 262 280 285 285 286 290 300 296 305 304 304
246 255 252 250 272 255 272 257 238 250 239 222 207 204 212 205 185 181 179 174 176 179 179 180 184 186 190 198 207 211 214 216 220 229 235 248 249 258 266 279 285 284 284 289 294 295 297 294 296
238 247 232 240 251 244 230 264 218 237 256 247 218 217 219 207 201 200 196 193 192 189 194 197 198 199 206 212 217 221 225 228 229 237 243 246 250 254 270 277 282 281 281 283 293 291 298 298 297
231 244 220 242 232 259 209 249 158 239 254 260 265 227 224 224 216 209 204 204 207 206 207 209 213 214 219 223 229 233 237 234 236 243 251 255 253 256 260 267 277 273 278 283 286 294 303 297 290
222 229 232 232 217 238 223 250 248 201 269 261 258 250 228 224 224 220 215 213 211 214 217 220 222 226 230 233 240 245 247 246 237 245 269 255 249 252 260 268 273 275 286 291 286 280 294 299 303
218 214 215 214 209 242 157 230 256 282 282 288 256 266 240 229 227 224 222 220 217 219 221 226 229 234 241 245 249 251 248 258 246 248 257 242 249 255 261 264 270 276 283 287 296 283 307 312 316
211 212 236 242 216 207 196 245 250 271 286 286 283 260 248 240 230 228 227 227 227 229 232 235 237 235 242 244 244 246 248 255 251 250 253 243 246 252 260 266 271 281 282 281 274 297 312 309 313
205 206 218 236 243 267 253 255 272 273 278 309 297 271 249 235 231 228 228 231 232 232 233 239 242 240 222 234 243 259 259 256 255 250 247 239 251 261 269 273 278 280 283 285 272 303 310 310 310
204 210 195 213 227 240 214 244 253 234 254 19 13 20 254 228 220 220 225 226 227 234 235 238 248 241 234 239 252 263 264 258 253 251 240 245 257 263 262 278 278 268 275 282 298 304 307 308 305
208 213 213 223 232 255 271 258 222 221 265 263 313 333 359 241 220 222 218 219 223 220 219 231 237 244 236 251 258 264 261 258 252 248 246 253 257 262 271 269 270 283 296 301 308 307 305 304 303
222 229 222 232 221 234 267 269 265 256 234 259 283 278 293 268 257 272 258 238 228 222 223 222 227 231 236 246 254 254 255 255 256 250 250 252 253 253 281 276 278 289 300 295 300 302 303 302 300